Time,TemperatureF,DewpointF,PressureIn,WindDirection,WindDirectionDegrees,WindSpeedMPH,WindSpeedGustMPH,Humidity,HourlyPrecipIn,Conditions,Clouds,dailyrainin,SoftwareType,DateUTC
2013-05-07 00:03:00,56.0,46.0,30.02,NW,322,0.0,1.0,70,0.00,,,0.00,,2013-05-07 04:03:00,
2013-05-07 00:12:00,56.0,46.0,30.02,NW,322,0.0,1.0,70,0.00,,,0.00,,2013-05-07 04:12:00,
2013-05-07 00:23:00,55.0,46.0,30.03,NW,322,0.0,1.0,71,0.00,,,0.00,,2013-05-07 04:23:00,
2013-05-07 00:33:00,55.0,46.0,30.03,NW,322,0.0,1.0,71,0.00,,,0.00,,2013-05-07 04:33:00,
2013-05-07 00:42:00,55.0,46.0,30.03,NW,322,0.0,1.0,71,0.00,,,0.00,,2013-05-07 04:42:00,
2013-05-07 00:53:00,54.0,48.0,30.03,NW,322,0.0,0.0,80,0.00,,,0.00,,2013-05-07 04:53:00,
2013-05-07 01:02:00,54.0,48.0,30.03,NW,322,0.0,0.0,81,0.00,,,0.00,,2013-05-07 05:02:00,
2013-05-07 01:12:00,54.0,48.0,30.03,NW,322,0.0,0.0,81,0.00,,,0.00,,2013-05-07 05:12:00,
2013-05-07 01:22:00,54.0,48.0,30.03,NW,322,0.0,0.0,81,0.00,,,0.00,,2013-05-07 05:22:00,
2013-05-07 01:32:00,53.0,48.0,30.03,NW,322,0.0,0.0,83,0.00,,,0.00,,2013-05-07 05:32:00,
2013-05-07 01:42:00,53.0,48.0,30.03,NW,322,0.0,0.0,83,0.00,,,0.00,,2013-05-07 05:42:00,
2013-05-07 01:52:00,53.0,48.0,30.03,NW,322,0.0,0.0,83,0.00,,,0.00,,2013-05-07 05:52:00,
2013-05-07 02:02:00,52.0,48.0,30.03,NW,322,0.0,0.0,85,0.00,,,0.00,,2013-05-07 06:02:00,
2013-05-07 02:12:00,52.0,48.0,30.03,NW,322,0.0,0.0,85,0.00,,,0.00,,2013-05-07 06:12:00,
2013-05-07 02:22:00,51.0,47.0,30.02,NW,322,0.0,0.0,85,0.00,,,0.00,,2013-05-07 06:22:00,
2013-05-07 02:32:00,51.0,47.0,30.02,NW,322,0.0,0.0,86,0.00,,,0.00,,2013-05-07 06:32:00,
2013-05-07 02:42:00,51.0,47.0,30.02,NW,322,0.0,0.0,86,0.00,,,0.00,,2013-05-07 06:42:00,
2013-05-07 02:52:00,50.0,46.0,30.02,NW,322,0.0,0.0,87,0.00,,,0.00,,2013-05-07 06:52:00,
2013-05-07 03:02:00,50.0,46.0,30.02,NW,322,0.0,0.0,87,0.00,,,0.00,,2013-05-07 07:02:00,
2013-05-07 03:11:00,50.0,46.0,30.02,NW,322,0.0,0.0,87,0.00,,,0.00,,2013-05-07 07:11:00,
2013-05-07 03:22:00,50.0,46.0,30.02,NW,322,0.0,0.0,87,0.00,,,0.00,,2013-05-07 07:22:00,
2013-05-07 03:31:00,49.0,46.0,30.01,NW,322,0.0,0.0,88,0.00,,,0.00,,2013-05-07 07:31:00,
2013-05-07 03:42:00,49.0,46.0,30.01,NW,322,0.0,0.0,88,0.00,,,0.00,,2013-05-07 07:42:00,
2013-05-07 03:52:00,49.0,46.0,30.01,NW,322,0.0,0.0,89,0.00,,,0.00,,2013-05-07 07:52:00,
2013-05-07 04:02:00,49.0,46.0,30.01,NW,322,0.0,0.0,89,0.00,,,0.00,,2013-05-07 08:02:00,
2013-05-07 04:11:00,49.0,46.0,30.01,NW,322,0.0,0.0,89,0.00,,,0.00,,2013-05-07 08:11:00,
2013-05-07 04:21:00,49.0,46.0,30.01,NW,322,0.0,0.0,90,0.00,,,0.00,,2013-05-07 08:21:00,
2013-05-07 04:31:00,49.0,46.0,30.01,NW,322,0.0,0.0,90,0.00,,,0.00,,2013-05-07 08:31:00,
2013-05-07 04:42:00,49.0,46.0,30.01,NW,322,0.0,0.0,90,0.00,,,0.00,,2013-05-07 08:42:00,
2013-05-07 04:52:00,48.0,45.0,30.01,NW,322,0.0,0.0,91,0.00,,,0.00,,2013-05-07 08:52:00,
2013-05-07 05:01:00,48.0,45.0,30.01,NW,322,0.0,0.0,91,0.00,,,0.00,,2013-05-07 09:01:00,
2013-05-07 05:11:00,48.0,45.0,30.01,NW,322,0.0,0.0,91,0.00,,,0.00,,2013-05-07 09:11:00,
2013-05-07 05:22:00,48.0,45.0,30.01,NW,322,0.0,0.0,91,0.00,,,0.00,,2013-05-07 09:22:00,
2013-05-07 05:33:00,48.0,46.0,30.01,NW,322,0.0,0.0,92,0.00,,,0.00,,2013-05-07 09:33:00,
2013-05-07 05:42:00,48.0,46.0,30.01,NW,322,0.0,0.0,92,0.00,,,0.00,,2013-05-07 09:42:00,
2013-05-07 05:52:00,48.0,46.0,30.02,NW,322,0.0,0.0,93,0.00,,,0.00,,2013-05-07 09:52:00,
2013-05-07 06:03:00,48.0,46.0,30.02,NW,322,0.0,0.0,93,0.00,,,0.00,,2013-05-07 10:03:00,
2013-05-07 06:12:00,48.0,46.0,30.02,NW,322,0.0,0.0,93,0.00,,,0.00,,2013-05-07 10:12:00,
2013-05-07 06:23:00,48.0,46.0,30.02,NW,322,0.0,0.0,93,0.00,,,0.00,,2013-05-07 10:23:00,
2013-05-07 06:32:00,48.0,46.0,30.03,NW,322,0.0,0.0,94,0.00,,,0.00,,2013-05-07 10:32:00,
2013-05-07 06:42:00,48.0,46.0,30.03,NW,322,0.0,0.0,94,0.00,,,0.00,,2013-05-07 10:42:00,
2013-05-07 06:52:00,48.0,46.0,30.03,NW,322,0.0,0.0,94,0.00,,,0.00,,2013-05-07 10:52:00,
2013-05-07 07:02:00,48.0,47.0,30.03,NW,322,0.0,0.0,95,0.00,,,0.00,,2013-05-07 11:02:00,
2013-05-07 07:12:00,48.0,47.0,30.03,NW,322,0.0,0.0,95,0.00,,,0.00,,2013-05-07 11:12:00,
2013-05-07 07:22:00,48.0,47.0,30.03,NW,322,0.0,0.0,95,0.00,,,0.00,,2013-05-07 11:22:00,
2013-05-07 07:32:00,48.0,47.0,30.04,NW,322,0.0,0.0,95,0.00,,,0.00,,2013-05-07 11:32:00,
2013-05-07 07:42:00,48.0,47.0,30.04,NW,322,0.0,0.0,95,0.00,,,0.00,,2013-05-07 11:42:00,
2013-05-07 07:51:00,50.0,49.0,30.04,NW,322,0.0,0.0,95,0.00,,,0.00,,2013-05-07 11:51:00,
2013-05-07 08:02:00,50.0,49.0,30.04,NW,322,0.0,0.0,95,0.00,,,0.00,,2013-05-07 12:02:00,
2013-05-07 08:11:00,50.0,49.0,30.04,NW,322,0.0,0.0,95,0.00,,,0.00,,2013-05-07 12:11:00,
2013-05-07 08:21:00,50.0,49.0,30.04,NW,322,0.0,0.0,95,0.00,,,0.00,,2013-05-07 12:21:00,
2013-05-07 08:32:00,50.0,49.0,30.04,NW,322,0.0,0.0,95,0.00,,,0.00,,2013-05-07 12:32:00,
2013-05-07 08:52:00,56.0,54.0,30.04,NW,322,0.0,0.0,93,0.00,,,0.00,,2013-05-07 12:52:00,
2013-05-07 09:02:00,59.0,54.0,30.04,NW,322,0.0,0.0,84,0.00,,,0.00,,2013-05-07 13:02:00,
2013-05-07 09:11:00,59.0,54.0,30.04,NW,322,0.0,0.0,84,0.00,,,0.00,,2013-05-07 13:11:00,
2013-05-07 09:21:00,63.0,54.0,30.05,NW,322,0.0,2.0,72,0.00,,,0.00,,2013-05-07 13:21:00,
2013-05-07 09:32:00,63.0,53.0,30.05,NW,322,2.0,3.0,70,0.00,,,0.00,,2013-05-07 13:32:00,
2013-05-07 09:42:00,63.0,53.0,30.05,NW,322,2.0,3.0,70,0.00,,,0.00,,2013-05-07 13:42:00,
2013-05-07 09:52:00,63.0,53.0,30.05,NW,322,2.0,3.0,70,0.00,,,0.00,,2013-05-07 13:52:00,
2013-05-07 10:02:00,63.0,53.0,30.05,NW,322,2.0,3.0,70,0.00,,,0.00,,2013-05-07 14:02:00,
2013-05-07 10:11:00,63.0,53.0,30.05,NW,322,2.0,3.0,70,0.00,,,0.00,,2013-05-07 14:11:00,
2013-05-07 10:32:00,67.0,53.0,30.05,NNW,342,3.0,3.0,60,0.00,,,0.00,,2013-05-07 14:32:00,
2013-05-07 10:42:00,67.0,53.0,30.05,NNW,342,3.0,3.0,60,0.00,,,0.00,,2013-05-07 14:42:00,
2013-05-07 10:52:00,69.0,54.0,30.05,NNW,342,0.0,4.0,59,0.00,,,0.00,,2013-05-07 14:52:00,
2013-05-07 11:01:00,69.0,54.0,30.05,NNW,342,0.0,4.0,59,0.00,,,0.00,,2013-05-07 15:01:00,
2013-05-07 11:12:00,69.0,54.0,30.05,NNW,342,0.0,4.0,59,0.00,,,0.00,,2013-05-07 15:12:00,
2013-05-07 11:21:00,70.0,55.0,30.04,NNW,348,0.0,4.0,59,0.00,,,0.00,,2013-05-07 15:21:00,
2013-05-07 11:33:00,71.0,55.0,30.04,North,5,1.0,7.0,58,0.00,,,0.00,,2013-05-07 15:33:00,
2013-05-07 11:42:00,71.0,55.0,30.04,North,5,1.0,7.0,58,0.00,,,0.00,,2013-05-07 15:42:00,
2013-05-07 11:53:00,71.0,55.0,30.04,North,5,1.0,7.0,58,0.00,,,0.00,,2013-05-07 15:53:00,
2013-05-07 12:03:00,72.0,56.0,30.04,NNE,24,3.0,6.0,57,0.00,,,0.00,,2013-05-07 16:03:00,
2013-05-07 12:12:00,72.0,56.0,30.04,NNE,24,3.0,6.0,57,0.00,,,0.00,,2013-05-07 16:12:00,
2013-05-07 12:22:00,72.0,56.0,30.04,NNE,24,3.0,6.0,57,0.00,,,0.00,,2013-05-07 16:22:00,
2013-05-07 12:32:00,74.0,55.0,30.03,ENE,69,7.0,9.0,52,0.00,,,0.00,,2013-05-07 16:32:00,
2013-05-07 12:42:00,74.0,55.0,30.03,ENE,69,7.0,9.0,52,0.00,,,0.00,,2013-05-07 16:42:00,
2013-05-07 12:52:00,74.0,55.0,30.03,ENE,69,7.0,9.0,52,0.00,,,0.00,,2013-05-07 16:52:00,
2013-05-07 13:01:00,74.0,55.0,30.03,ENE,69,7.0,9.0,52,0.00,,,0.00,,2013-05-07 17:01:00,
2013-05-07 13:12:00,75.0,55.0,30.02,NE,51,4.0,9.0,50,0.00,,,0.00,,2013-05-07 17:12:00,
2013-05-07 13:21:00,75.0,55.0,30.02,NE,51,4.0,9.0,50,0.00,,,0.00,,2013-05-07 17:21:00,
2013-05-07 13:32:00,75.0,55.0,30.02,NE,51,4.0,9.0,50,0.00,,,0.00,,2013-05-07 17:32:00,
2013-05-07 13:41:00,75.0,55.0,30.02,NE,51,4.0,9.0,50,0.00,,,0.00,,2013-05-07 17:41:00,
2013-05-07 13:52:00,75.0,55.0,30.02,NE,51,4.0,9.0,50,0.00,,,0.00,,2013-05-07 17:52:00,
2013-05-07 14:01:00,75.0,55.0,30.02,NE,51,4.0,9.0,50,0.00,,,0.00,,2013-05-07 18:01:00,
2013-05-07 14:21:00,76.0,54.0,30.02,NE,51,1.0,7.0,46,0.00,,,0.00,,2013-05-07 18:21:00,
2013-05-07 14:31:00,72.0,54.0,30.02,WNW,298,10.0,12.0,53,0.00,,,0.00,,2013-05-07 18:31:00,
2013-05-07 14:42:00,72.0,54.0,30.02,WNW,298,10.0,12.0,53,0.00,,,0.00,,2013-05-07 18:42:00,
2013-05-07 14:51:00,71.0,54.0,30.02,WNW,292,4.0,12.0,56,0.00,,,0.00,,2013-05-07 18:51:00,
2013-05-07 15:02:00,72.0,54.0,30.02,West,269,2.0,11.0,54,0.00,,,0.00,,2013-05-07 19:02:00,
2013-05-07 15:11:00,72.0,54.0,30.02,West,269,2.0,11.0,54,0.00,,,0.00,,2013-05-07 19:11:00,
2013-05-07 15:21:00,72.0,54.0,30.02,NW,305,3.0,10.0,53,0.00,,,0.00,,2013-05-07 19:21:00,
2013-05-07 15:32:00,72.0,53.0,30.02,NNW,334,7.0,10.0,52,0.00,,,0.00,,2013-05-07 19:32:00,
2013-05-07 15:42:00,72.0,53.0,30.02,NNW,334,7.0,10.0,52,0.00,,,0.00,,2013-05-07 19:42:00,
2013-05-07 15:52:00,72.0,53.0,30.02,NW,317,4.0,7.0,51,0.00,,,0.00,,2013-05-07 19:52:00,
2013-05-07 16:02:00,72.0,53.0,30.02,NW,317,4.0,7.0,51,0.00,,,0.00,,2013-05-07 20:02:00,
2013-05-07 16:11:00,72.0,53.0,30.02,NW,317,4.0,7.0,51,0.00,,,0.00,,2013-05-07 20:11:00,
2013-05-07 16:21:00,72.0,53.0,30.02,NW,317,4.0,7.0,51,0.00,,,0.00,,2013-05-07 20:21:00,
2013-05-07 16:32:00,72.0,53.0,30.02,NW,317,4.0,7.0,51,0.00,,,0.00,,2013-05-07 20:32:00,
2013-05-07 19:42:00,69.0,49.0,30.02,NW,326,0.0,6.0,49,0.00,,,0.00,,2013-05-07 23:42:00,
2013-05-07 19:52:00,69.0,49.0,30.02,NW,326,0.0,6.0,49,0.00,,,0.00,,2013-05-07 23:52:00,
2013-05-07 20:00:00,67.0,49.0,30.03,NNW,336,1.0,6.0,52,0.00,,,0.00,,2013-05-08 00:00:00,
2013-05-07 20:02:00,69.0,49.0,30.02,NW,326,0.0,6.0,49,0.00,,,0.00,,2013-05-08 00:02:00,
2013-05-07 20:11:00,67.0,49.0,30.03,NNW,336,1.0,6.0,52,0.00,,,0.00,,2013-05-08 00:11:00,
2013-05-07 20:21:00,67.0,49.0,30.03,NNW,336,1.0,6.0,52,0.00,,,0.00,,2013-05-08 00:21:00,
2013-05-07 20:32:00,67.0,49.0,30.03,NNW,336,1.0,6.0,52,0.00,,,0.00,,2013-05-08 00:32:00,
2013-05-07 20:42:00,67.0,49.0,30.03,NNW,336,1.0,6.0,52,0.00,,,0.00,,2013-05-08 00:42:00,
2013-05-07 20:52:00,67.0,49.0,30.03,NNW,336,1.0,6.0,52,0.00,,,0.00,,2013-05-08 00:52:00,
2013-05-07 21:22:00,65.0,48.0,30.03,NW,323,0.0,4.0,54,0.00,,,0.00,,2013-05-08 01:22:00,
2013-05-07 21:32:00,64.0,47.0,30.03,NW,323,0.0,3.0,54,0.00,,,0.00,,2013-05-08 01:32:00,
2013-05-07 21:42:00,64.0,47.0,30.03,NW,323,0.0,3.0,54,0.00,,,0.00,,2013-05-08 01:42:00,
2013-05-07 21:52:00,64.0,47.0,30.03,NW,323,0.0,3.0,54,0.00,,,0.00,,2013-05-08 01:52:00,
2013-05-07 22:01:00,64.0,48.0,30.04,NW,323,0.0,3.0,56,0.00,,,0.00,,2013-05-08 02:01:00,
2013-05-07 22:12:00,64.0,48.0,30.04,NW,323,0.0,3.0,56,0.00,,,0.00,,2013-05-08 02:12:00,
2013-05-07 22:22:00,63.0,47.0,30.04,NW,323,0.0,3.0,56,0.00,,,0.00,,2013-05-08 02:22:00,
2013-05-07 22:32:00,63.0,47.0,30.04,NW,323,1.0,3.0,56,0.00,,,0.00,,2013-05-08 02:32:00,
2013-05-07 22:42:00,62.0,47.0,30.05,NW,323,1.0,2.0,57,0.00,,,0.00,,2013-05-08 02:42:00,
2013-05-07 22:52:00,62.0,47.0,30.05,NW,323,1.0,2.0,57,0.00,,,0.00,,2013-05-08 02:52:00,
2013-05-07 23:01:00,62.0,47.0,30.05,NW,323,0.0,1.0,59,0.00,,,0.00,,2013-05-08 03:01:00,
2013-05-07 23:11:00,62.0,47.0,30.05,NW,323,0.0,1.0,59,0.00,,,0.00,,2013-05-08 03:11:00,
2013-05-07 23:21:00,61.0,47.0,30.05,NW,323,0.0,1.0,61,0.00,,,0.00,,2013-05-08 03:21:00,
2013-05-07 23:32:00,61.0,47.0,30.05,NW,323,0.0,1.0,61,0.00,,,0.00,,2013-05-08 03:32:00,
2013-05-07 23:43:00,61.0,47.0,30.05,NW,323,0.0,1.0,61,0.00,,,0.00,,2013-05-08 03:43:00,
2013-05-07 23:52:00,61.0,47.0,30.05,NW,323,0.0,1.0,61,0.00,,,0.00,,2013-05-08 03:52:00,